QPF
0.00 0.00 0.00 0.00 0.00 0.00 0.00 0.00 0.00 0.00 0.00 0.00 0.00 0.00 0.00 0.00 0.00 0.00 0.00 0.00 0.00 0.00 0.00 0.00 0.00 0.00 0.00 0.00 0.00 0.00 0.00 0.00 0.00 0.00 0.00 0.00 0.00 0.01 0.01 0.01 0.00 0.00 0.00
0.00 0.00 0.00 0.00 0.00 0.00 0.00 0.00 0.00 0.00 0.00 0.00 0.00 0.00 0.00 0.00 0.00 0.00 0.00 0.00 0.00 0.00 0.00 0.00 0.00 0.00 0.00 0.00 0.00 0.00 0.00 0.00 0.00 0.00 0.00 0.00 0.00 0.01 0.01 0.00 0.00 0.00 0.00
0.00 0.00 0.00 0.00 0.00 0.00 0.00 0.00 0.00 0.00 0.00 0.00 0.00 0.00 0.00 0.00 0.00 0.00 0.00 0.00 0.00 0.00 0.00 0.00 0.00 0.00 0.00 0.00 0.00 0.00 0.00 0.00 0.00 0.00 0.00 0.00 0.00 0.01 0.02 0.01 0.00 0.00 0.00
0.00 0.00 0.00 0.00 0.00 0.00 0.00 0.00 0.00 0.00 0.00 0.00 0.00 0.00 0.00 0.00 0.00 0.00 0.00 0.00 0.00 0.00 0.00 0.00 0.00 0.00 0.00 0.00 0.00 0.00 0.00 0.00 0.00 0.00 0.00 0.00 0.00 0.01 0.02 0.02 0.02 0.01 0.01
0.00 0.00 0.00 0.00 0.00 0.00 0.00 0.00 0.00 0.00 0.00 0.00 0.00 0.00 0.00 0.00 0.00 0.00 0.00 0.00 0.00 0.00 0.00 0.00 0.00 0.00 0.00 0.00 0.00 0.00 0.00 0.00 0.00 0.00 0.00 0.00 0.00 0.00 0.02 0.04 0.03 0.03 0.02
0.00 0.00 0.00 0.00 0.00 0.00 0.00 0.00 0.00 0.00 0.00 0.00 0.00 0.00 0.00 0.00 0.00 0.00 0.00 0.00 0.00 0.00 0.00 0.00 0.00 0.00 0.00 0.00 0.00 0.00 0.00 0.00 0.00 0.00 0.00 0.00 0.00 0.00 0.02 0.04 0.06 0.05 0.03
0.00 0.00 0.00 0.00 0.00 0.00 0.00 0.00 0.00 0.00 0.00 0.00 0.00 0.00 0.00 0.00 0.00 0.00 0.00 0.00 0.00 0.00 0.00 0.00 0.00 0.00 0.00 0.00 0.00 0.00 0.00 0.00 0.00 0.00 0.00 0.00 0.00 0.00 0.02 0.07 0.10 0.08 0.06
0.00 0.00 0.00 0.00 0.00 0.00 0.00 0.00 0.00 0.00 0.00 0.00 0.00 0.00 0.00 0.00 0.00 0.00 0.00 0.00 0.00 0.00 0.00 0.00 0.00 0.00 0.00 0.00 0.00 0.00 0.00 0.00 0.00 0.00 0.00 0.00 0.00 0.00 0.02 0.08 0.10 0.09 0.08
0.00 0.00 0.00 0.00 0.00 0.00 0.00 0.00 0.00 0.00 0.00 0.00 0.00 0.00 0.00 0.00 0.00 0.00 0.00 0.00 0.00 0.00 0.00 0.00 0.00 0.00 0.00 0.00 0.00 0.00 0.00 0.00 0.00 0.00 0.00 0.00 0.00 0.00 0.03 0.08 0.10 0.09 0.08
0.00 0.00 0.00 0.00 0.00 0.00 0.00 0.00 0.00 0.00 0.00 0.00 0.00 0.00 0.00 0.00 0.00 0.00 0.00 0.00 0.00 0.00 0.00 0.00 0.00 0.00 0.00 0.00 0.00 0.00 0.00 0.00 0.00 0.00 0.00 0.00 0.00 0.00 0.03 0.08 0.12 0.10 0.08
0.00 0.00 0.00 0.00 0.00 0.00 0.00 0.00 0.00 0.00 0.00 0.00 0.00 0.00 0.00 0.00 0.00 0.00 0.00 0.00 0.00 0.00 0.00 0.00 0.00 0.00 0.00 0.00 0.00 0.00 0.00 0.00 0.00 0.00 0.00 0.00 0.00 0.01 0.04 0.07 0.10 0.10 0.09
0.00 0.00 0.00 0.00 0.00 0.00 0.00 0.00 0.00 0.00 0.00 0.00 0.00 0.00 0.00 0.00 0.00 0.00 0.00 0.00 0.00 0.00 0.01 0.01 0.01 0.01 0.01 0.01 0.00 0.01 0.00 0.00 0.00 0.00 0.00 0.00 0.00 0.03 0.06 0.09 0.10 0.10 0.09
0.00 0.00 0.00 0.00 0.00 0.00 0.00 0.00 0.00 0.00 0.00 0.00 0.00 0.00 0.00 0.00 0.00 0.00 0.00 0.00 0.00 0.01 0.02 0.02 0.04 0.03 0.02 0.02 0.01 0.00 0.00 0.00 0.00 0.00 0.00 0.00 0.01 0.07 0.12 0.11 0.10 0.09 0.09
0.00 0.00 0.00 0.00 0.00 0.00 0.00 0.01 0.00 0.00 0.00 0.00 0.00 0.00 0.00 0.00 0.00 0.00 0.00 0.00 0.00 0.01 0.01 0.01 0.02 0.03 0.04 0.03 0.01 0.01 0.01 0.01 0.01 0.01 0.01 0.01 0.03 0.10 0.17 0.16 0.12 0.10 0.09
0.00 0.00 0.00 0.01 0.02 0.02 0.03 0.04 0.03 0.02 0.01 0.01 0.00 0.01 0.01 0.01 0.01 0.01 0.01 0.02 0.02 0.02 0.02 0.02 0.03 0.04 0.06 0.05 0.03 0.02 0.02 0.02 0.02 0.03 0.04 0.03 0.05 0.09 0.17 0.18 0.15 0.13 0.12
0.00 0.01 0.01 0.03 0.05 0.07 0.07 0.09 0.09 0.07 0.07 0.06 0.05 0.05 0.04 0.04 0.06 0.06 0.05 0.05 0.03 0.03 0.04 0.06 0.07 0.08 0.07 0.08 0.06 0.07 0.06 0.04 0.04 0.06 0.07 0.05 0.04 0.06 0.13 0.18 0.16 0.15 0.15
0.01 0.01 0.02 0.05 0.09 0.11 0.11 0.15 0.21 0.24 0.20 0.19 0.21 0.18 0.15 0.13 0.13 0.12 0.10 0.09 0.10 0.13 0.14 0.14 0.15 0.15 0.12 0.11 0.10 0.12 0.09 0.07 0.07 0.08 0.07 0.07 0.06 0.05 0.09 0.16 0.18 0.16 0.15
0.02 0.02 0.04 0.08 0.14 0.18 0.19 0.23 0.26 0.27 0.30 0.34 0.32 0.25 0.23 0.23 0.21 0.20 0.15 0.17 0.25 0.29 0.29 0.26 0.27 0.26 0.22 0.20 0.17 0.16 0.13 0.11 0.09 0.09 0.08 0.08 0.08 0.07 0.08 0.12 0.14 0.13 0.15
0.05 0.05 0.07 0.11 0.19 0.24 0.29 0.32 0.29 0.33 0.38 0.40 0.35 0.28 0.23 0.23 0.24 0.25 0.21 0.24 0.39 0.43 0.43 0.46 0.46 0.42 0.31 0.25 0.24 0.20 0.14 0.12 0.12 0.11 0.09 0.08 0.08 0.07 0.06 0.06 0.07 0.10 0.13
0.05 0.06 0.06 0.09 0.14 0.21 0.30 0.29 0.26 0.25 0.28 0.31 0.28 0.25 0.22 0.20 0.25 0.31 0.25 0.27 0.45 0.50 0.50 0.57 0.56 0.48 0.39 0.36 0.33 0.22 0.14 0.12 0.10 0.06 0.05 0.06 0.07 0.06 0.05 0.06 0.06 0.06 0.07
0.06 0.06 0.04 0.07 0.11 0.12 0.11 0.12 0.12 0.13 0.13 0.11 0.13 0.15 0.18 0.21 0.23 0.28 0.25 0.26 0.40 0.44 0.42 0.49 0.53 0.48 0.41 0.42 0.38 0.24 0.14 0.09 0.06 0.03 0.03 0.03 0.03 0.03 0.04 0.05 0.05 0.05 0.05
0.03 0.03 0.03 0.04 0.04 0.03 0.03 0.04 0.05 0.06 0.06 0.06 0.07 0.10 0.13 0.15 0.17 0.19 0.19 0.23 0.32 0.34 0.34 0.39 0.47 0.48 0.40 0.39 0.37 0.28 0.15 0.07 0.04 0.03 0.03 0.02 0.02 0.03 0.03 0.04 0.05 0.04 0.06
0.01 0.01 0.01 0.01 0.01 0.01 0.01 0.02 0.02 0.02 0.02 0.02 0.02 0.03 0.06 0.07 0.08 0.10 0.11 0.14 0.17 0.20 0.21 0.26 0.38 0.39 0.33 0.30 0.31 0.31 0.19 0.07 0.04 0.04 0.03 0.02 0.02 0.03 0.03 0.04 0.05 0.05 0.07
0.00 0.00 0.00 0.00 0.00 0.00 0.00 0.00 0.01 0.01 0.01 0.01 0.01 0.02 0.02 0.02 0.03 0.05 0.06 0.08 0.11 0.12 0.13 0.19 0.25 0.27 0.28 0.25 0.24 0.22 0.19 0.12 0.09 0.05 0.04 0.02 0.02 0.02 0.04 0.05 0.07 0.08 0.09
0.00 0.00 0.00 0.00 0.00 0.00 0.00 0.00 0.00 0.00 0.00 0.00 0.00 0.00 0.00 0.01 0.01 0.01 0.02 0.03 0.05 0.07 0.09 0.15 0.18 0.21 0.21 0.20 0.20 0.20 0.22 0.20 0.16 0.11 0.05 0.03 0.04 0.05 0.07 0.10 0.10 0.10 0.10
0.00 0.00 0.00 0.00 0.00 0.00 0.00 0.00 0.00 0.00 0.00 0.00 0.00 0.00 0.00 0.00 0.00 0.00 0.00 0.01 0.02 0.03 0.05 0.09 0.12 0.12 0.13 0.16 0.19 0.19 0.18 0.18 0.16 0.15 0.13 0.09 0.08 0.08 0.08 0.09 0.09 0.10 0.10
MSLP
1010.75 1010.51 1010.49 1010.71 1011.09 1011.53 1011.95 1012.27 1012.47 1012.57 1012.59 1012.60 1012.65 1012.77 1012.97 1013.23 1013.51 1013.78 1014.00 1014.16 1014.25 1014.31 1014.34 1014.37 1014.42 1014.49 1014.59 1014.71 1014.82 1014.94 1015.05 1015.16 1015.26 1015.35 1015.45 1015.53 1015.60 1015.67 1015.73 1015.79 1015.85 1015.92 1015.99
1010.39 1010.27 1010.37 1010.69 1011.14 1011.62 1012.07 1012.40 1012.61 1012.71 1012.75 1012.78 1012.86 1013.01 1013.25 1013.53 1013.81 1014.08 1014.29 1014.43 1014.50 1014.54 1014.56 1014.59 1014.65 1014.72 1014.81 1014.91 1015.01 1015.10 1015.19 1015.28 1015.36 1015.45 1015.55 1015.64 1015.73 1015.81 1015.88 1015.94 1016.00 1016.06 1016.13
1010.04 1010.04 1010.25 1010.65 1011.16 1011.68 1012.15 1012.50 1012.73 1012.85 1012.92 1012.99 1013.11 1013.29 1013.54 1013.81 1014.09 1014.32 1014.49 1014.59 1014.64 1014.67 1014.69 1014.72 1014.79 1014.87 1014.97 1015.07 1015.15 1015.23 1015.29 1015.36 1015.43 1015.52 1015.63 1015.73 1015.83 1015.92 1015.99 1016.06 1016.12 1016.18 1016.26
1009.76 1009.86 1010.15 1010.61 1011.16 1011.72 1012.20 1012.57 1012.82 1012.98 1013.08 1013.19 1013.34 1013.54 1013.79 1014.05 1014.29 1014.47 1014.59 1014.65 1014.67 1014.69 1014.71 1014.77 1014.87 1014.98 1015.09 1015.20 1015.28 1015.34 1015.39 1015.43 1015.50 1015.59 1015.69 1015.81 1015.91 1016.01 1016.09 1016.15 1016.21 1016.27 1016.37
1009.59 1009.75 1010.11 1010.60 1011.17 1011.73 1012.22 1012.60 1012.86 1013.04 1013.18 1013.32 1013.49 1013.71 1013.95 1014.19 1014.38 1014.52 1014.59 1014.61 1014.62 1014.63 1014.69 1014.78 1014.91 1015.06 1015.20 1015.32 1015.40 1015.45 1015.49 1015.52 1015.58 1015.66 1015.76 1015.88 1015.98 1016.07 1016.14 1016.19 1016.23 1016.30 1016.40
1009.56 1009.76 1010.13 1010.63 1011.19 1011.73 1012.20 1012.57 1012.83 1013.02 1013.18 1013.34 1013.54 1013.77 1014.00 1014.21 1014.37 1014.47 1014.51 1014.51 1014.51 1014.55 1014.63 1014.77 1014.94 1015.13 1015.30 1015.43 1015.52 1015.56 1015.58 1015.60 1015.65 1015.72 1015.82 1015.93 1016.02 1016.09 1016.13 1016.16 1016.18 1016.23 1016.34
1009.67 1009.89 1010.24 1010.71 1011.23 1011.73 1012.15 1012.48 1012.72 1012.91 1013.07 1013.25 1013.47 1013.70 1013.94 1014.14 1014.29 1014.37 1014.39 1014.39 1014.40 1014.46 1014.57 1014.75 1014.96 1015.18 1015.37 1015.51 1015.59 1015.62 1015.63 1015.64 1015.67 1015.74 1015.83 1015.92 1015.99 1016.04 1016.05 1016.03 1016.03 1016.05 1016.14
1009.91 1010.11 1010.44 1010.86 1011.31 1011.73 1012.09 1012.35 1012.55 1012.71 1012.87 1013.06 1013.29 1013.54 1013.79 1013.99 1014.15 1014.23 1014.25 1014.26 1014.29 1014.37 1014.51 1014.71 1014.94 1015.17 1015.37 1015.50 1015.57 1015.59 1015.58 1015.58 1015.60 1015.66 1015.74 1015.82 1015.87 1015.89 1015.86 1015.81 1015.76 1015.75 1015.82
1010.21 1010.39 1010.69 1011.05 1011.42 1011.76 1012.03 1012.22 1012.36 1012.49 1012.63 1012.81 1013.05 1013.32 1013.59 1013.81 1013.98 1014.07 1014.12 1014.14 1014.18 1014.26 1014.41 1014.61 1014.84 1015.06 1015.24 1015.36 1015.41 1015.41 1015.39 1015.38 1015.39 1015.44 1015.51 1015.59 1015.63 1015.62 1015.57 1015.48 1015.40 1015.35 1015.39
1010.50 1010.68 1010.93 1011.24 1011.54 1011.79 1011.98 1012.10 1012.18 1012.26 1012.39 1012.57 1012.81 1013.09 1013.38 1013.63 1013.82 1013.93 1013.99 1014.01 1014.05 1014.12 1014.25 1014.43 1014.63 1014.83 1014.98 1015.07 1015.10 1015.09 1015.05 1015.03 1015.04 1015.09 1015.15 1015.22 1015.25 1015.24 1015.17 1015.07 1014.96 1014.90 1014.91
1010.71 1010.89 1011.13 1011.40 1011.65 1011.84 1011.95 1012.01 1012.04 1012.08 1012.18 1012.35 1012.60 1012.90 1013.20 1013.46 1013.66 1013.78 1013.84 1013.86 1013.87 1013.93 1014.02 1014.15 1014.32 1014.47 1014.59 1014.66 1014.67 1014.64 1014.60 1014.57 1014.57 1014.61 1014.67 1014.73 1014.77 1014.75 1014.69 1014.59 1014.49 1014.42 1014.42
1010.78 1010.98 1011.23 1011.49 1011.71 1011.86 1011.93 1011.95 1011.95 1011.96 1012.04 1012.21 1012.45 1012.74 1013.04 1013.30 1013.50 1013.62 1013.66 1013.65 1013.64 1013.65 1013.69 1013.79 1013.91 1014.03 1014.12 1014.17 1014.18 1014.14 1014.10 1014.06 1014.05 1014.07 1014.11 1014.17 1014.20 1014.20 1014.16 1014.09 1014.01 1013.95 1013.97
1010.68 1010.92 1011.20 1011.46 1011.68 1011.83 1011.89 1011.90 1011.89 1011.89 1011.96 1012.11 1012.33 1012.61 1012.89 1013.14 1013.31 1013.41 1013.42 1013.38 1013.33 1013.29 1013.30 1013.35 1013.44 1013.54 1013.63 1013.68 1013.69 1013.67 1013.61 1013.56 1013.52 1013.51 1013.53 1013.56 1013.59 1013.60 1013.59 1013.55 1013.52 1013.51 1013.55
1010.44 1010.73 1011.03 1011.33 1011.57 1011.73 1011.81 1011.83 1011.83 1011.84 1011.90 1012.03 1012.23 1012.48 1012.73 1012.93 1013.07 1013.13 1013.11 1013.03 1012.94 1012.87 1012.85 1012.88 1012.96 1013.07 1013.17 1013.25 1013.28 1013.26 1013.21 1013.13 1013.06 1013.00 1012.97 1012.96 1012.96 1012.97 1012.99 1013.00 1013.03 1013.07 1013.15
1010.13 1010.43 1010.77 1011.08 1011.35 1011.55 1011.67 1011.73 1011.75 1011.78 1011.84 1011.95 1012.12 1012.32 1012.51 1012.67 1012.76 1012.77 1012.71 1012.60 1012.49 1012.40 1012.37 1012.41 1012.50 1012.63 1012.77 1012.89 1012.95 1012.95 1012.89 1012.79 1012.67 1012.54 1012.45 1012.37 1012.33 1012.33 1012.36 1012.42 1012.49 1012.60 1012.73
1009.82 1010.13 1010.45 1010.79 1011.08 1011.31 1011.47 1011.58 1011.63 1011.68 1011.74 1011.83 1011.96 1012.10 1012.23 1012.33 1012.36 1012.33 1012.23 1012.11 1011.98 1011.89 1011.88 1011.94 1012.07 1012.25 1012.43 1012.59 1012.69 1012.71 1012.65 1012.51 1012.33 1012.13 1011.95 1011.80 1011.71 1011.68 1011.71 1011.79 1011.91 1012.07 1012.25
1009.61 1009.87 1010.17 1010.49 1010.78 1011.04 1011.24 1011.38 1011.47 1011.54 1011.60 1011.66 1011.74 1011.82 1011.88 1011.91 1011.89 1011.81 1011.69 1011.56 1011.44 1011.37 1011.38 1011.47 1011.64 1011.87 1012.10 1012.30 1012.44 1012.47 1012.41 1012.24 1012.01 1011.73 1011.47 1011.24 1011.09 1011.01 1011.03 1011.11 1011.27 1011.46 1011.68
1009.55 1009.73 1009.97 1010.23 1010.51 1010.77 1010.99 1011.16 1011.28 1011.36 1011.41 1011.45 1011.48 1011.49 1011.48 1011.44 1011.37 1011.26 1011.12 1010.99 1010.88 1010.84 1010.87 1010.99 1011.20 1011.45 1011.72 1011.95 1012.11 1012.16 1012.09 1011.90 1011.62 1011.29 1010.96 1010.67 1010.46 1010.34 1010.33 1010.41 1010.57 1010.79 1011.02
1009.64 1009.72 1009.86 1010.06 1010.29 1010.53 1010.75 1010.95 1011.09 1011.18 1011.23 1011.23 1011.21 1011.15 1011.08 1010.97 1010.85 1010.71 1010.56 1010.43 1010.34 1010.31 1010.36 1010.50 1010.71 1010.97 1011.25 1011.49 1011.65 1011.71 1011.63 1011.44 1011.15 1010.79 1010.43 1010.10 1009.85 1009.69 1009.65 1009.72 1009.87 1010.07 1010.31
1009.85 1009.82 1009.86 1009.97 1010.14 1010.35 1010.57 1010.77 1010.92 1011.02 1011.06 1011.04 1010.96 1010.85 1010.71 1010.55 1010.39 1010.22 1010.06 1009.93 1009.84 1009.81 1009.86 1009.99 1010.18 1010.41 1010.66 1010.88 1011.04 1011.09 1011.03 1010.85 1010.57 1010.23 1009.87 1009.53 1009.27 1009.10 1009.04 1009.08 1009.20 1009.39 1009.59
1010.09 1009.96 1009.91 1009.94 1010.05 1010.23 1010.43 1010.64 1010.81 1010.92 1010.95 1010.90 1010.79 1010.63 1010.44 1010.23 1010.02 1009.83 1009.65 1009.51 1009.42 1009.37 1009.39 1009.47 1009.61 1009.79 1009.98 1010.15 1010.28 1010.33 1010.28 1010.13 1009.90 1009.61 1009.30 1009.00 1008.76 1008.60 1008.52 1008.53 1008.62 1008.77 1008.94
1010.30 1010.10 1009.97 1009.93 1009.99 1010.14 1010.35 1010.56 1010.75 1010.87 1010.91 1010.85 1010.71 1010.51 1010.27 1010.03 1009.79 1009.56 1009.37 1009.21 1009.09 1009.02 1008.98 1008.99 1009.05 1009.13 1009.24 1009.34 1009.42 1009.46 1009.43 1009.34 1009.18 1008.98 1008.75 1008.53 1008.34 1008.20 1008.13 1008.12 1008.17 1008.26 1008.39
1010.42 1010.17 1009.99 1009.91 1009.94 1010.07 1010.28 1010.51 1010.73 1010.87 1010.92 1010.87 1010.72 1010.50 1010.23 1009.95 1009.68 1009.43 1009.22 1009.04 1008.89 1008.75 1008.65 1008.57 1008.51 1008.49 1008.48 1008.50 1008.52 1008.54 1008.54 1008.51 1008.45 1008.36 1008.25 1008.12 1008.01 1007.91 1007.85 1007.83 1007.84 1007.89 1007.97
1010.43 1010.16 1009.95 1009.85 1009.86 1010.00 1010.22 1010.48 1010.72 1010.90 1010.97 1010.93 1010.79 1010.56 1010.28 1009.98 1009.69 1009.42 1009.18 1008.97 1008.77 1008.57 1008.38 1008.19 1008.01 1007.85 1007.73 1007.65 1007.61 1007.61 1007.63 1007.67 1007.71 1007.75 1007.76 1007.75 1007.73 1007.71 1007.67 1007.65 1007.63 1007.64 1007.68
1010.37 1010.09 1009.87 1009.75 1009.77 1009.91 1010.14 1010.42 1010.69 1010.90 1011.01 1010.99 1010.86 1010.64 1010.35 1010.05 1009.75 1009.46 1009.20 1008.95 1008.69 1008.42 1008.13 1007.83 1007.52 1007.23 1006.99 1006.80 1006.69 1006.66 1006.71 1006.81 1006.95 1007.11 1007.26 1007.38 1007.47 1007.52 1007.54 1007.53 1007.50 1007.49 1007.49
1010.30 1010.01 1009.77 1009.65 1009.65 1009.79 1010.03 1010.33 1010.62 1010.86 1010.99 1011.00 1010.89 1010.68 1010.41 1010.11 1009.80 1009.50 1009.21 1008.92 1008.61 1008.27 1007.87 1007.45 1007.01 1006.58 1006.21 1005.91 1005.73 1005.67 1005.73 1005.89 1006.13 1006.41 1006.69 1006.94 1007.15 1007.30 1007.39 1007.41 1007.41 1007.39 1007.39
Thickness
5826 5826 5822 5817 5813 5809 5806 5803 5800 5798 5795 5793 5791 5789 5787 5786 5784 5782 5780 5778 5776 5775 5773 5771 5770 5768 5766 5764 5762 5761 5759 5757 5755 5753 5752 5751 5749 5748 5747 5746 5744 5743 5742
5835 5828 5824 5819 5814 5810 5806 5803 5800 5798 5795 5793 5791 5789 5787 5785 5783 5781 5779 5777 5776 5774 5772 5770 5768 5766 5764 5763 5761 5759 5757 5755 5754 5752 5751 5750 5749 5747 5746 5745 5744 5743 5742
5836 5830 5825 5820 5815 5811 5807 5804 5801 5798 5795 5793 5791 5788 5787 5785 5783 5781 5779 5777 5775 5773 5771 5769 5767 5765 5764 5762 5760 5758 5756 5755 5753 5751 5750 5748 5748 5747 5746 5745 5743 5743 5742
5836 5831 5826 5821 5816 5812 5808 5804 5801 5798 5795 5793 5790 5788 5786 5784 5782 5780 5778 5775 5774 5772 5770 5768 5766 5765 5763 5761 5759 5757 5755 5754 5752 5751 5749 5747 5746 5746 5745 5744 5743 5742 5742
5834 5830 5826 5822 5817 5812 5808 5804 5801 5797 5794 5792 5789 5787 5784 5782 5780 5778 5776 5774 5772 5771 5769 5767 5766 5764 5762 5760 5758 5756 5754 5753 5751 5750 5748 5747 5746 5745 5744 5743 5742 5742 5741
5833 5830 5826 5821 5816 5812 5808 5804 5800 5797 5794 5791 5788 5786 5783 5781 5779 5776 5774 5772 5770 5769 5768 5766 5765 5763 5761 5760 5758 5756 5754 5752 5751 5750 5748 5747 5746 5745 5744 5743 5742 5741 5741
5831 5828 5824 5820 5815 5811 5807 5803 5799 5796 5793 5790 5787 5785 5782 5780 5777 5775 5773 5771 5769 5768 5766 5765 5764 5762 5761 5759 5758 5756 5754 5753 5751 5750 5748 5747 5747 5746 5745 5744 5743 5742 5741
5830 5826 5822 5818 5813 5809 5805 5802 5798 5795 5792 5789 5786 5784 5781 5779 5777 5775 5773 5771 5769 5767 5766 5764 5763 5762 5760 5759 5757 5756 5755 5753 5752 5751 5749 5748 5748 5747 5746 5746 5745 5744 5742
5827 5823 5819 5816 5811 5807 5804 5800 5796 5793 5790 5787 5785 5782 5780 5777 5775 5774 5772 5770 5769 5767 5765 5764 5763 5761 5760 5759 5757 5756 5755 5754 5753 5751 5750 5749 5748 5748 5748 5748 5747 5746 5744
5823 5820 5817 5813 5809 5806 5802 5798 5795 5792 5789 5786 5783 5781 5779 5776 5774 5773 5771 5769 5768 5767 5765 5764 5763 5761 5760 5759 5757 5756 5755 5754 5754 5752 5751 5751 5750 5749 5749 5749 5749 5748 5747
5819 5817 5814 5811 5807 5804 5800 5797 5794 5791 5788 5785 5783 5780 5778 5776 5774 5772 5770 5768 5767 5766 5765 5764 5763 5761 5760 5758 5757 5756 5755 5755 5754 5753 5752 5752 5751 5751 5751 5751 5751 5750 5749
5816 5814 5812 5809 5805 5802 5798 5796 5793 5790 5787 5785 5782 5780 5777 5775 5772 5770 5768 5767 5766 5765 5764 5763 5762 5761 5759 5758 5757 5755 5754 5754 5753 5753 5753 5753 5753 5753 5753 5753 5753 5752 5751
5816 5813 5810 5807 5803 5799 5796 5793 5790 5788 5785 5783 5781 5778 5776 5773 5770 5768 5766 5764 5763 5763 5762 5762 5761 5759 5758 5757 5755 5754 5753 5752 5752 5752 5753 5753 5753 5753 5754 5754 5754 5753 5752
5812 5810 5808 5804 5799 5795 5792 5789 5786 5783 5781 5779 5778 5775 5773 5770 5768 5766 5764 5762 5760 5759 5759 5758 5758 5757 5756 5755 5754 5753 5752 5751 5751 5751 5752 5752 5753 5753 5753 5754 5754 5754 5753
5808 5806 5803 5799 5795 5791 5787 5784 5781 5779 5777 5775 5773 5771 5769 5767 5765 5764 5761 5759 5758 5757 5756 5756 5755 5755 5754 5753 5752 5751 5750 5750 5750 5750 5750 5751 5751 5752 5753 5753 5753 5753 5752
5804 5801 5798 5794 5791 5787 5782 5779 5777 5775 5772 5769 5767 5765 5763 5762 5760 5758 5758 5757 5756 5755 5754 5753 5752 5751 5750 5749 5749 5748 5748 5747 5747 5748 5748 5749 5749 5750 5751 5752 5752 5752 5751
5802 5799 5794 5790 5786 5781 5777 5774 5771 5769 5766 5764 5762 5760 5758 5756 5755 5753 5753 5753 5753 5752 5750 5748 5747 5746 5744 5743 5743 5743 5744 5744 5745 5745 5745 5746 5747 5748 5749 5750 5750 5750 5750
5796 5792 5790 5787 5781 5776 5772 5769 5766 5764 5762 5760 5758 5755 5754 5752 5751 5749 5748 5750 5749 5747 5745 5744 5742 5739 5738 5737 5737 5738 5740 5741 5742 5743 5743 5743 5743 5745 5747 5747 5748 5748 5748
5790 5786 5782 5779 5776 5771 5767 5764 5761 5759 5757 5755 5753 5752 5751 5749 5747 5746 5745 5746 5745 5743 5742 5740 5739 5735 5733 5731 5731 5732 5734 5736 5737 5739 5740 5740 5740 5742 5743 5744 5745 5746 5746
5782 5778 5774 5772 5769 5765 5761 5758 5754 5752 5751 5750 5748 5747 5747 5745 5744 5742 5743 5743 5741 5739 5738 5737 5735 5733 5730 5727 5725 5727 5729 5732 5733 5734 5736 5737 5738 5739 5740 5740 5741 5742 5743
5775 5771 5767 5763 5760 5757 5753 5749 5745 5743 5744 5743 5742 5742 5741 5740 5739 5737 5738 5738 5736 5735 5736 5735 5732 5729 5728 5724 5719 5718 5723 5727 5729 5732 5733 5733 5735 5736 5737 5738 5738 5739 5740
5767 5764 5759 5757 5754 5750 5747 5743 5740 5738 5737 5736 5736 5735 5735 5734 5733 5732 5731 5731 5731 5730 5731 5731 5729 5726 5725 5722 5716 5711 5712 5717 5725 5729 5730 5730 5732 5733 5734 5735 5735 5736 5737
5759 5757 5755 5751 5748 5745 5741 5737 5733 5729 5727 5726 5726 5726 5727 5726 5726 5725 5725 5725 5725 5724 5725 5726 5725 5722 5720 5719 5716 5711 5707 5709 5714 5721 5724 5726 5727 5728 5730 5731 5732 5733 5734
5754 5752 5749 5745 5742 5739 5735 5729 5725 5720 5716 5716 5716 5716 5717 5717 5717 5718 5718 5718 5718 5718 5718 5719 5720 5719 5717 5715 5713 5712 5712 5712 5707 5710 5715 5719 5721 5722 5725 5726 5728 5729 5729
5749 5746 5743 5739 5736 5732 5728 5724 5719 5715 5713 5711 5710 5708 5708 5708 5708 5708 5709 5709 5709 5710 5711 5712 5713 5713 5713 5712 5711 5709 5708 5707 5706 5704 5706 5710 5712 5716 5719 5720 5721 5723 5723
5743 5740 5736 5733 5730 5727 5723 5719 5715 5711 5708 5705 5703 5701 5700 5700 5700 5700 5700 5700 5700 5701 5702 5704 5706 5707 5707 5708 5708 5707 5706 5705 5705 5703 5702 5704 5704 5707 5710 5712 5714 5716 5716